(356) Liguria
ephemeris date magn radius delta ra dec elong phase
Today25 Jun 202512.82.100 AU3.107 AU05h59m+28°57'6.6°3.2°
Opposition5 Mar 202611.62.600 AU1.608 AU11h06m+08°12'177.7°0.9°
(356) Liguria - 2025-06-25
astro.vanbuitenen.nl


 
-1 year
-1 month
-1 day
Now
+1 day
+1 month
+1 year

The interactive orbit chart above shows the body's path through the solar system and its position at the given date. Green and blue lines are shown perpendicular to the ecliptic plane: Green if the path is above the ecliptic plane, blue if it is below. (Left-click and drag to rotate the view; Right-click and drag to move the view; Use scroll wheel to zoom in our out.)

The orbital elements of Liguria are:

            e (Eccentricity)                : 0.2420772
            a (Semimajor axis)              : 2.7549472
            i (Inclination)                 : 8.20455
            Ω (Longitude of ascending node) : 354.47586
            ω (Argument of perihelion)      : 79.39860
            M (Mean anomaly)                : 357.42288
            Epoch                           : 2025 May 05

            L (Longitude of perihelion)     : 73.76735
            B (Latitude of perihelion)      : 8.06357
            P (Orbital period in years)     : 4.57            
        

The light curve chart below shows the estimated development of the minor planet's magnitude.


The all-sky chart below shows the path of the minor planet over the same period as the light curve. The current position is marked yellow.





The following chart shows the path of the minor planet in the next few days. The field of view is optimized for (~10x50) binoculars and finderscopes. A more printer-friendly version of the same chart can be found below.




Ephemerides:
Date       Time       RA (2000)    DEC (2000)    delta   radius  elong  phase   PA    magn
2025-06-25 00:00 UT   05 59 05.7   +28 57 49     3.107    2.100    6.6    3.2   327   12.8 
2025-06-25 05:40 UT   05 59 41.6   +28 57 49     3.107    2.101    6.6    3.2   326   12.8 
2025-06-26 00:00 UT   06 01 37.7   +28 57 46     3.107    2.101    6.8    3.3   325   12.8 
2025-06-27 00:00 UT   06 04 09.6   +28 57 34     3.107    2.102    7.0    3.4   322   12.8 
2025-06-28 00:00 UT   06 06 41.5   +28 57 12     3.107    2.102    7.3    3.5   320   12.8 
2025-06-29 00:00 UT   06 09 13.2   +28 56 42     3.107    2.103    7.5    3.6   318   12.8 
2025-06-30 00:00 UT   06 11 44.8   +28 56 02     3.106    2.104    7.8    3.8   316   12.8 
2025-07-01 00:00 UT   06 14 16.2   +28 55 14     3.106    2.105    8.1    3.9   314   12.8 
2025-07-02 00:00 UT   06 16 47.5   +28 54 16     3.106    2.105    8.4    4.0   313   12.8 
2025-07-03 00:00 UT   06 19 18.6   +28 53 10     3.105    2.106    8.7    4.2   311   12.8 
2025-07-04 00:00 UT   06 21 49.6   +28 51 55     3.105    2.107    9.0    4.3   310   12.8 
2025-07-05 00:00 UT   06 24 20.4   +28 50 31     3.104    2.108    9.3    4.5   308   12.8 
2025-07-06 00:00 UT   06 26 51.0   +28 48 58     3.104    2.108    9.7    4.6   307   12.9 
2025-07-07 00:00 UT   06 29 21.5   +28 47 17     3.103    2.109   10.0    4.8   306   12.9 
2025-07-08 00:00 UT   06 31 51.7   +28 45 27     3.102    2.110   10.3    5.0   305   12.9 
2025-07-09 00:00 UT   06 34 21.7   +28 43 28     3.101    2.111   10.7    5.1   304   12.9 
2025-07-10 00:00 UT   06 36 51.5   +28 41 20     3.101    2.112   11.0    5.3   303   12.9 


    Terminology:
            
    delta:  distance between minor planet and earth in AU
    radius: distance between minor planet and sun in AU
    magn:   magnitude (brightness) estimate    
    ra:     right ascension in hours (24h = 360deg)
    dec:    declination in degrees
    elong:  elongation in degrees (angle sun-earth-minor planet)    
    phase:  phase angle in degrees (angle sun-minor planet-earth)        
    AU:     Astronomical Unit (mean distance between earth and sun: 149597870.7 km
    

Orbital elements provided by the MPC (Minor Planet Center).
Calculations by a modified version of AAPlus, a C# implementation of the AA+ project by PJ Naughter from the algorithms presented in the book "Astronomical Algorithms" by Jean Meeus.
NGC2000 dso catalog and star labels from VizieR as provided by the Strasbourg astronomical Data Center.
Tycho2 catalog from the ESO archive.